Terug naar catalogus

WESTFORD NEEDLES

ActiefPO
NORAD 19051·DEBRIS·🇺🇸 United States

Gelanceerd May 9, 1963 vanaf Vandenberg Space Force Base

Loading…

Volgende Passages (komende 24 uur)

TLE

VersSource: Space-Track

Epoch: Sep 14, 2026, 14:55 UTC

1 19051U 63014EA  26257.62216576  .00000427  00000-0  19159+0 0  9994
2 19051  87.3627 143.9813 0197880 125.7020 236.2425  8.66836176451094

Volg WESTFORD NEEDLES in realtime met AllMySat

Download on the App Store